Home > Weather > Edmundston > Past weeks

Flag for Canada Weather for the Past 2 Weeks in Edmundston, New Brunswick, Canada

Now
41 °F

Quite cool.


Feels Like: 35 °F
Forecast: 41 / 64 °F
Wind: 9 mph from Northeast

Location: St Leonard

Current Time: May 6, 2016 at 2:32:28 AM

Latest Report: May 6, 2016 at 1:00 AM


Visibility: N/A

Pressure: 29.87 "Hg

Humidity: 83%

Dew Point: 36 °F

Location of EdmundstonLocation

Historic Weather in Edmundston — Graph

°F

Edmundston Temperature Yesterday

Maximum temperature yesterday: 48 °F (at 8:00 PM)
Minimum temperature yesterday: 36 °F (at 7:00 AM)
Average temperature yesterday: 43 °F

High & Low Weather Summary for the Past Weeks

 TemperatureHumidityPressure
High67 °F (Apr 22, 4:00 PM)100% (May 3, 1:00 AM)30.27 "Hg (May 3, 1:00 AM)
Low16 °F (Apr 28, 6:00 AM)20% (May 1, 4:00 PM)29.74 "Hg (Apr 26, 7:00 PM)
Average39 °F57%29.98 "Hg
* Reported Apr 21 1:00 AM — May 6 1:00 AM, Edmundston, Weather by CustomWeather, © 2016

Note: Actual official high and low records may vary slightly from our data, if they occured in-between our weather recording intervals... More about our weather records

Advertising

Edmundston Weather History for the Previous 24 Hours

Scroll right to see more
 ConditionsComfort  
Time TempWeatherWind HumidityBarometerVisibility
1:00 AM
Fri, May 6
41 °FQuite cool.9 mph83%29.87 "HgN/A
12:00 AM42 °FQuite cool.9 mph75%29.88 "HgN/A
11:00 PM
Thu, May 5
44 °FQuite cool.9 mph74%29.90 "HgN/A
10:00 PM45 °FCool.8 mph69%29.91 "HgN/A
9:00 PM46 °FCool.9 mph69%29.90 "HgN/A
8:00 PM48 °FCool.8 mph65%29.91 "HgN/A
7:00 PM46 °FCool.7 mph71%29.91 "HgN/A
6:00 PM47 °FCool.10 mph68%29.92 "HgN/A
5:00 PM47 °FCool.9 mph68%29.93 "HgN/A
4:00 PM46 °FCool.9 mph67%29.94 "HgN/A
3:00 PM46 °FCool.10 mph68%29.96 "HgN/A
2:00 PM44 °FQuite cool.10 mph70%29.97 "HgN/A
1:00 PM44 °FQuite cool.8 mph70%29.98 "HgN/A
12:00 PM43 °FQuite cool.8 mph72%29.98 "HgN/A
11:00 AM42 °FQuite cool.8 mph73%29.98 "HgN/A
10:00 AM42 °FQuite cool.8 mph76%29.97 "HgN/A
9:00 AM41 °FQuite cool.8 mph75%29.98 "HgN/A
8:00 AM39 °FChilly.7 mph82%29.96 "HgN/A
7:00 AM36 °FChilly.2 mph92%29.96 "HgN/A
6:00 AM38 °FChilly.6 mph87%29.95 "HgN/A
5:00 AM40 °FChilly.3 mph84%29.94 "HgN/A
4:00 AM40 °FChilly.5 mph82%29.95 "HgN/A
3:00 AM40 °FChilly.5 mph83%29.96 "HgN/A
2:00 AM39 °FChilly.5 mph83%29.97 "HgN/A
Weather by CustomWeather, © 2016

See weather overviewHow to use our weather pages